This is the latest recevied weather packets stored in our database for station/object KN6WGU. If no packets are shown the sender has not sent any weather packets the latest 10 day(s).
| Time | Temp. | Humidity | Pressure | Rain* | Wind** | Luminosity | Snow |
|---|---|---|---|---|---|---|---|
| 1777487339 | 10.56° C | 93% | 1003.2 hPa | 0 mm | - | 116 W/m² | - |
| 1777487037 | 10.56° C | 93% | 1003.1 hPa | 0 mm | - | 82 W/m² | - |
| 1777486732 | 10.56° C | 93% | 1002.9 hPa | 0 mm | - | 101 W/m² | - |
| 1777486430 | 10.56° C | 93% | 1003.2 hPa | 0 mm | - | 77 W/m² | - |
| 1777486128 | 10.56° C | 93% | 1003 hPa | 0 mm | - | 75 W/m² | - |
| 1777485824 | 10.56° C | 93% | 1003 hPa | 0 mm | - | 124 W/m² | - |
| 1777485520 | 10.56° C | 93% | 1003.2 hPa | 0 mm | - | 92 W/m² | - |
| 1777485216 | 10.56° C | 93% | 1003.1 hPa | 0 mm | - | 77 W/m² | - |
| 1777484913 | 10.56° C | 93% | 1003.3 hPa | 0 mm | - | 73 W/m² | - |
| 1777484611 | 10.56° C | 93% | 1003.1 hPa | 0 mm | - | 80 W/m² | - |
| 1777484306 | 10.56° C | 93% | 1003 hPa | 0 mm | - | 115 W/m² | - |
| 1777484002 | 10° C | 93% | 1003 hPa | 0 mm | - | 114 W/m² | - |
| 1777483699 | 10.56° C | 93% | 1002.9 hPa | 0 mm | - | 121 W/m² | - |
| 1777483395 | 10.56° C | 93% | 1003.1 hPa | 0 mm | - | 117 W/m² | - |
| 1777483090 | 10.56° C | 93% | 1003.1 hPa | 0 mm | - | 173 W/m² | - |
| 1777482788 | 10.56° C | 93% | 1003 hPa | 0 mm | - | 189 W/m² | - |
| 1777482483 | 10.56° C | 94% | 1003.2 hPa | 0 mm | - | 216 W/m² | - |
| 1777482181 | 10.56° C | 95% | 1003.2 hPa | 0 mm | - | 145 W/m² | - |
| 1777481878 | 10.56° C | 95% | 1003 hPa | 0 mm | - | 248 W/m² | - |
| 1777481575 | 10.56° C | 96% | 1003 hPa | 0 mm | - | 158 W/m² | - |
| 1777481272 | 10.56° C | 96% | 1003.1 hPa | 0 mm | - | 131 W/m² | - |
| 1777480969 | 10.56° C | 96% | 1003.4 hPa | 0 mm | - | 192 W/m² | - |
| 1777480665 | 10° C | 96% | 1003.4 hPa | 0 mm | - | 220 W/m² | - |
| 1777480363 | 10° C | 96% | 1003.4 hPa | 0 mm | - | 103 W/m² | - |
| 1777480058 | 10° C | 96% | 1003.2 hPa | 0 mm | - | 119 W/m² | - |
* Rain latest hour (hover to see other rain measurements)
** Current wind speed in m/s (hover to see current wind gust speed)